Avoriaz, France 16 day weather forecast

Slopes altitude range 950 m - 2300m

Number of lifts: 197 Pistes: 650km

In some cases the lift and piste totals shown are for the ski domain (e.g. Three Valleys) rather than individual resort (e.g. Courchevel)

Overview

The 16 day weather forecast is fully updated 4 times every day.

    • Sat 20 APR 2019
    • Sat 20
    • -1C 7C
    • Sun 21 APR 2019
    • Sun 21
    • 1C 9C
    • Mon 22 APR 2019
    • Mon 22
    • 2C 9C
    • Tue 23 APR 2019
    • Tue 23
    • 2C 8C
    • Wed 24 APR 2019
    • Wed 24
    • 3C 9C
    • Thu 25 APR 2019
    • Thu 25
    • 3C 9C
    • Fri 26 APR 2019
    • Fri 26
    • -5C -3C
    • Sat 27 APR 2019
    • Sat 27
    • -5C -1C
    • Sun 28 APR 2019
    • Sun 28
    • -1C 3C
    • Mon 29 APR 2019
    • Mon 29
    • 2C 6C
    • Tue 30 APR 2019
    • Tue 30
    • 0C 11C
    • Wed 01 MAY 2019
    • Wed 01
    • 4C 11C
    • Thu 02 MAY 2019
    • Thu 02
    • 4C 12C
    • Fri 03 MAY 2019
    • Fri 03
    • 4C 11C
    • Sat 04 MAY 2019
    • Sat 04
    • 4C 14C
    • Sun 05 MAY 2019
    • Sun 05
    • 4C 13C

Date:

Time Type 0°C level Temp Chill Snow Cloud Speed Gust Dir Press
3:00 2048m -2°C -2_6 0cm 50% 6mph 7mph 1028mB
6:00 2050m -3°C -3_7 0cm 42% 7mph 7mph 1028mB
9:00 2600m -1°C -1_6 0cm 1% 6mph 7mph 1026mB
12:00 2756m 7°C 7_6 0cm 1% 6mph 7mph 1025mB
15:00 2845m 8°C 8_6 0cm 1% 6mph 7mph 1023mB
18:00 2758m 8°C 8_6 0cm 0% 6mph 7mph 1023mB
21:00 2142m -1°C -1_8 0cm 54% 8mph 8mph 1025mB
0:00 2159m -1°C -1_7 0cm 76% 7mph 8mph 1025mB
3:00 2189m -1°C -1_7 0cm 100% 7mph 8mph 1023mB
6:00 2744m -1°C -1_7 0cm 99% 7mph 9mph 1022mB
9:00 2748m 1°C 1_6 0cm 98% 6mph 8mph 1020mB
12:00 2913m 9°C 9_6 0cm 96% 6mph 7mph 1018mB
15:00 2820m 9°C 9_6 1cm 96% 6mph 7mph 1016mB
18:00 2701m 9°C 9_6 1cm 97% 6mph 7mph 1016mB
21:00 2255m 0°C 0_8 0cm 95% 8mph 10mph 1018mB
0:00 2178m 0°C 0_8 0cm 95% 8mph 9mph 1017mB
3:00 2236m -1°C -1_8 0cm 96% 8mph 10mph 1015mB
6:00 2625m -1°C -1_8 1cm 97% 8mph 11mph 1012mB
9:00 2733m 2°C 2_9 1cm 98% 9mph 11mph 1009mB
12:00 2924m 9°C 9_9 0cm 81% 9mph 11mph 1006mB
15:00 2959m 9°C 9_8 0cm 63% 8mph 9mph 1003mB
18:00 2747m 9°C 9_8 0cm 78% 8mph 11mph 1003mB
21:00 2780m 2°C 2_8 1cm 100% 8mph 11mph 1003mB
0:00 2667m 2°C 2_8 1cm 100% 8mph 10mph 1002mB
3:00 2516m 1°C 1_7 1cm 100% 7mph 8mph 1001mB
6:00 2599m 1°C 1_6 1cm 100% 6mph 8mph 1000mB
9:00 2672m 2°C 2_5 1cm 99% 5mph 7mph 1000mB
12:00 2828m 8°C 8_4 0cm 97% 4mph 5mph 999mB
15:00 2775m 8°C 8_4 0cm 96% 4mph 6mph 999mB
18:00 2786m 8°C 8_4 0cm 96% 4mph 5mph 1000mB
21:00 2774m 3°C 3_6 0cm 99% 6mph 6mph 1004mB
0:00 2811m 1°C 1_7 1cm 98% 7mph 7mph 1005mB
3:00 2772m 1°C 1_7 0cm 95% 7mph 8mph 1006mB
6:00 2736m 1°C 1_8 0cm 92% 8mph 11mph 1006mB
9:00 2709m 3°C 3_10 0cm 95% 10mph 13mph 1007mB
12:00 2868m 9°C 9_10 1cm 97% 10mph 12mph 1008mB
15:00 2823m 8°C 8_9 1cm 98% 9mph 12mph 1008mB
18:00 2753m 8°C 8_8 0cm 99% 8mph 11mph 1009mB
21:00 2786m 3°C 3_8 0cm 100% 8mph 10mph 1011mB
0:00 2803m 2°C 2_8 1cm 99% 8mph 11mph 1012mB
3:00 2744m 1°C 1_8 0cm 96% 8mph 10mph 1012mB
6:00 2731m 1°C 1_8 0cm 95% 8mph 11mph 1012mB
9:00 2739m 3°C 3_10 0cm 61% 10mph 12mph 1011mB
12:00 2829m 9°C 9_10 0cm 78% 10mph 13mph 1009mB
15:00 2836m 9°C 9_10 0cm 94% 10mph 13mph 1009mB
18:00 2544m 9°C 9_5 1cm 96% 5mph 7mph 1010mB
21:00 2217m 0°C 0_4 4cm 99% 4mph 4mph 1012mB
0:00 1924m -2°C -2_7 6cm 99% 7mph 9mph 1012mB
3:00 1561m -4°C -4_7 9cm 100% 7mph 10mph 1013mB
6:00 1466m -5°C -5_8 8cm 100% 8mph 12mph 1014mB
9:00 1426m -5°C -5_9 5cm 100% 9mph 13mph 1016mB
12:00 1608m -3°C -3_9 4cm 100% 9mph 12mph 1017mB
15:00 1620m -3°C -3_10 2cm 99% 10mph 13mph 1017mB
18:00 1542m -3°C -3_10 3cm 99% 10mph 15mph 1020mB
21:00 1491m -5°C -5_9 2cm 99% 9mph 13mph 1022mB
0:00 1535m -5°C -5_10 2cm 100% 10mph 15mph 1024mB
3:00 1415m -5°C -5_9 1cm 99% 9mph 13mph 1024mB
6:00 1440m -5°C -5_9 1cm 99% 9mph 13mph 1025mB
9:00 1704m -5°C -5_10 1cm 98% 10mph 13mph 1024mB
12:00 1895m -1°C -1_9 1cm 98% 9mph 12mph 1024mB
15:00 1978m -1°C -1_9 1cm 97% 9mph 12mph 1023mB
18:00 1922m -1°C -1_7 1cm 97% 7mph 11mph 1024mB
21:00 1813m -3°C -3_5 0cm 95% 5mph 7mph 1026mB
0:00 1404m -5°C -5_4 0cm 89% 4mph 5mph 1026mB
3:00 1282m -6°C -6_4 0cm 46% 4mph 4mph 1024mB
6:00 2103m -6°C -6_3 0cm 68% 3mph 3mph 1023mB
9:00 2532m -1°C -1_4 0cm 26% 4mph 5mph 1022mB
12:00 2602m 3°C 3_5 0cm 53% 5mph 6mph 1020mB
15:00 2596m 2°C 2_5 0cm 96% 5mph 6mph 1019mB
18:00 2584m 3°C 3_4 0cm 95% 4mph 5mph 1019mB
21:00 2211m -1°C -1_5 0cm 93% 5mph 6mph 1021mB
0:00 2013m -2°C -2_6 0cm 66% 6mph 6mph 1020mB
3:00 2153m -2°C -2_6 0cm 0% 6mph 7mph 1020mB
6:00 2898m -2°C -2_4 0cm 1% 4mph 5mph 1019mB
9:00 2864m 2°C 2_3 0cm 4% 3mph 3mph 1017mB
12:00 2846m 6°C 6_4 0cm 29% 4mph 4mph 1015mB
15:00 2824m 5°C 5_4 0cm 95% 4mph 5mph 1013mB
18:00 2776m 5°C 5_3 0cm 94% 3mph 4mph 1013mB
21:00 2784m 1°C 1_4 0cm 83% 4mph 5mph 1015mB
0:00 2212m -1°C -1_6 0cm 52% 6mph 7mph 1015mB
Afternoon 0mm 0 2888m 11°C 11_4 0cm 7% 4mph 6mph 1011mB
Morning 0.015625mm 0.125 3044m 4°C 4_7 0cm 55% 7mph 8mph 1011mB
Afternoon 0.0104167mm 0 3012m 11°C 11_9 0cm 88% 9mph 11mph 1008mB
Morning 0.0677083mm 0 3003m 4°C 4_10 0cm 73% 10mph 15mph 1010mB
Afternoon 0.177083mm 0.75 3071m 12°C 12_6 0cm 81% 6mph 8mph 1009mB
Morning 0.609375mm 5.1875 3028m 5°C 5_5 0cm 84% 5mph 6mph 1012mB
Afternoon 0.354167mm 2.625 3069m 11°C 11_4 0cm 59% 4mph 5mph 1010mB
Morning 0.557292mm 3.625 3120m 5°C 5_3 0cm 84% 3mph 4mph 1013mB
Afternoon 0.104167mm 1.0625 3214m 14°C 14_5 0cm 51% 5mph 5mph 1011mB
Morning 0.255208mm 2.9375 3299m 5°C 5_2 0cm 47% 2mph 3mph 1013mB
Afternoon 0.161458mm 1.5625 3179m 13°C 13_6 0cm 71% 6mph 7mph 1010mB
Morning 0.255208mm 0.75 3128m 5°C 5_3 0cm 92% 3mph 4mph 1013mB

16 day outlook at a glance

Forecast issued: 20/04/2019 06:52:59

Chat

Your comments and questions. In a resort? Let us know what it's like!


Characters left 250

For terms and conditions see Readers Comments on the Cookie and privacy policy page.